User: anonymous   Login
Location: Unspecified
(0.0000°N, 0.0000°E)
Time: 21:55:03
(UTC+00:00)
Language:

TBA - TO BE ASSIGNED - Orbit

View from above orbital plane
View from above orbital plane
View from above satellite
View from above satellite

Ground track
Ground track

The orbit is defined by the following mean orbital elements,

1 67877U          26145.45867125 +.00000000 +00000-0 +47800-3 0 00006
2 67877  53.1575 208.0829 0001051  87.0775 273.0346 15.29376243    00
Epoch (UTC): 25 May 2026 11:00:29
Eccentricity: 0.0001051
inclination: 53.1575°
perigee height: 477 km
apogee height: 478 km
right ascension of ascending node: 208.0829°
argument of perigee: 87.0775°
revolutions per day: 15.29376243
mean anomaly at epoch: 273.0346°

The dashed part of the orbit path shows where the satellite is in the earth's shadow,  

DLR